Weather History for Bishop, CA

Change the Weather History Date:

Sunday, February 2, 2014

  Actual Average Record
Temperature  
Mean Temperature 31 °F 40 °F  
Max Temperature 47 °F 55 °F 72 °F (1995)
Min Temperature 14 °F 25 °F 9 °F (1949)
Degree Days  
Heating Degree Days 34 25  
Month to date heating degree days 66 50  
Since 1 July heating degree days 2492 2619  
Cooling Degree Days 0 0  
Month to date cooling degree days 0 0  
Year to date cooling degree days 0 0  
Moisture  
Dew Point 15 °F    
Average Humidity 53    
Maximum Humidity 80    
Minimum Humidity 25    
Precipitation  
Precipitation 0.00 in 0.03 in 2.62 in (1945)
Month to date precipitation 0.00 0.06  
Year to date precipitation 0.20 1.11  
Snow  
Snow 0.00 in 0.00 in T in (1985)
Month to date snowfall 0.0 0.0  
Since 1 July snowfall 0.5 5.8  
Snow Depth 0.00 in    
Sea Level Pressure  
Sea Level Pressure 29.94 in    
Wind  
Wind Speed 6 mph (SSW)    
Max Wind Speed 21 mph    
Max Gust Speed 25 mph    
Visibility 10 miles    
Events      
T = Trace of Precipitation, MM = Missing Value Source: NWS Daily Summary

Daily Weather History Graph

Daily Weather History Graph

Search for Another Location

Airport:

Trip Planner

Search our weather history database for the weather conditions in past years. The results will help you decide how hot, cold, wet, or windy it might be!

Date:

Astronomy

Feb. 02, 2014 Rise Set
Actual Time 6:55 AM PST 5:19 PM PST
Civil Twilight 6:28 AM PST 5:46 PM PST
Nautical Twilight 5:57 AM PST 6:17 PM PST
Astronomical Twilight 5:26 AM PST 6:48 PM PST
Moon 8:30 AM PST (2/2) 9:02 PM PST (2/2)
Length of Visible Light 11h 18m
Length of Day
10h 23m
Waxing Crescent, 12% of the Moon is Illuminated
Feb 2
Waxing Crescent
Feb 6
First Quarter
Feb 14
Full
Feb 22
Last Quarter
Mar 1
New

Hourly Weather History & Observations

Time (PST) Temp. Windchill Dew Point Humidity Pressure Visibility Wind Dir Wind Speed Gust Speed Precip Events Conditions
12:56 AM 17.1 °F 10.0 °F 10.9 °F 77% 30.07 in 10.0 mi North 4.6 mph - N/A   Clear
1:56 AM 19.0 °F 12.3 °F 12.0 °F 74% 30.06 in 10.0 mi NNW 4.6 mph - N/A   Clear
2:56 AM 15.1 °F 7.7 °F 10.0 °F 80% 30.06 in 10.0 mi NNE 4.6 mph - N/A   Clear
3:56 AM 17.1 °F 10.0 °F 10.9 °F 77% 30.04 in 10.0 mi NW 4.6 mph - N/A   Clear
4:56 AM 19.9 °F 14.9 °F 12.0 °F 71% 30.02 in 10.0 mi North 3.5 mph - N/A   Clear
5:56 AM 19.9 °F - 12.9 °F 74% 30.04 in 10.0 mi Calm Calm - N/A   Clear
6:56 AM 19.9 °F 14.9 °F 12.9 °F 74% 30.06 in 10.0 mi North 3.5 mph - N/A   Clear
7:56 AM 24.1 °F - 15.1 °F 69% 30.05 in 10.0 mi Calm Calm - N/A   Clear
8:56 AM 30.9 °F - 15.1 °F 52% 30.02 in 10.0 mi Calm Calm - N/A   Clear
9:56 AM 35.1 °F 32.2 °F 14.0 °F 42% 29.99 in 10.0 mi South 3.5 mph - N/A   Scattered Clouds
10:56 AM 37.0 °F 34.5 °F 12.9 °F 37% 29.98 in 10.0 mi Variable 3.5 mph - N/A   Scattered Clouds
11:51 AM 44.6 °F 37.8 °F 14.0 °F 29% 29.89 in 10.0 mi South 15.0 mph 21.9 mph N/A   Overcast
11:56 AM 44.1 °F 37.1 °F 14.0 °F 30% 29.90 in 10.0 mi SSE 15.0 mph - N/A   Overcast
12:56 PM 44.1 °F 37.1 °F 12.0 °F 27% 29.86 in 10.0 mi SSE 15.0 mph - N/A   Mostly Cloudy
1:56 PM 45.0 °F 38.2 °F 12.0 °F 26% 29.84 in 10.0 mi South 15.0 mph 25.3 mph N/A   Clear
2:56 PM 46.0 °F 39.9 °F 12.0 °F 25% 29.84 in 10.0 mi South 13.8 mph 21.9 mph N/A   Mostly Cloudy
3:56 PM 45.0 °F 39.7 °F 12.9 °F 27% 29.84 in 10.0 mi SSE 10.4 mph - N/A   Mostly Cloudy
4:56 PM 42.1 °F 38.4 °F 14.0 °F 32% 29.84 in 10.0 mi South 5.8 mph - N/A   Partly Cloudy
5:56 PM 39.9 °F 34.5 °F 21.0 °F 47% 29.86 in 10.0 mi South 8.1 mph - N/A   Overcast
6:56 PM 37.9 °F 32.1 °F 21.0 °F 51% 29.88 in 10.0 mi South 8.1 mph - N/A   Mostly Cloudy
7:56 PM 33.1 °F 30.0 °F 19.9 °F 59% 29.88 in 10.0 mi ESE 3.5 mph - N/A   Clear
8:56 PM 28.9 °F 22.8 °F 18.0 °F 64% 29.88 in 10.0 mi North 5.8 mph - N/A   Clear
9:56 PM 28.0 °F 20.0 °F 19.0 °F 69% 29.88 in 10.0 mi NW 8.1 mph - N/A   Clear
10:56 PM 26.1 °F 18.4 °F 18.0 °F 71% 29.90 in 10.0 mi WNW 6.9 mph - N/A   Clear
11:56 PM 25.0 °F 19.3 °F 18.0 °F 75% 29.89 in 10.0 mi NNW 4.6 mph - N/A   Clear